Regional Weather Roundup
Issued by NWS Newport/Morehead, NC

Current Version | Previous Version | Graphics & Text | Print | Product List | Glossary Off
Versions: 1 2 3 4 5 6 7 8 9 10 11 12 13 14 15 16 17 18 19 20 21 22 23 24 25 26 27 28 29 30 31 32 33 34 35 36 37 38 39 40 41 42 43 44 45 46 47 48 49 50

000
ASUS42 KMHX 061125
RWRMHX
WEATHER ROUNDUP FOR EASTERN NORTH CAROLINA
NATIONAL WEATHER SERVICE NEWPORT/MOREHEAD CITY NC
700 AM EDT FRI MAY 06 2016

NOTE: "FAIR" INDICATES FEW OR NO CLOUDS BELOW 12,000 FEET
WITH NO SIGNIFICANT WEATHER AND/OR OBSTRUCTIONS TO VISIBILITY

NCZ015>017-031-032-045>047-102-103-061200-
NORTH COAST

CITY           SKY/WX    TMP DP  RH WIND       PRES   REMARKS
EDENTON        CLOUDY    53  53 100 CALM      29.67R
ELIZABETH CITY CLOUDY    51  50  96 CALM      29.66R
KITTY HAWK     CLOUDY    52  51  97 CALM      29.65R
MANTEO         LGT RAIN  53  50  89 CALM      29.67R

$$

NCZ045>047-081-094-103-104-061200-
CENTRAL COAST

CITY           SKY/WX    TMP DP  RH WIND       PRES   REMARKS
FRISCO         PTCLDY    50  49  96 E3        29.66R
SWANQUARTER    NOT AVBL

$$

NCZ095-097-098-100-101-061200-
SOUTHERN COAST

CITY           SKY/WX    TMP DP  RH WIND       PRES   REMARKS
BEAUFORT       MOCLDY    52  48  86 MISG      29.68R
CEDAR ISLAND   NOT AVBL
JACKSONVILLE   CLOUDY    49  47  93 SW5       29.69R
PINEY ISLAND   NOT AVBL
WILMINGTON     CLOUDY    49  45  86 W9        29.71R


$$

NCZ011>013-027>030-043-044-078>080-089-090>093-098-061200-
COASTAL PLAIN

CITY           SKY/WX    TMP DP  RH WIND       PRES   REMARKS
AHOSKIE        CLOUDY    50  49  97 CALM      29.67R
CLINTON        CLOUDY    50  50 100 W3        29.71R
ELIZABETHTOWN  LGT RAIN  51  48  91 W6        29.72R
GOLDSBORO      LGT RAIN  52  52 100 W7        29.66R
GREENVILLE     LGT RAIN  52  52 100 CALM      29.69R
HAVELOCK       CLOUDY    51  47  86 W10       29.69R
KENANSVILLE    CLOUDY    50  49  97 CALM      29.70R
KINSTON        CLOUDY    52  52 100 W3        29.67R
NEW BERN       CLOUDY    51  48  89 SW6       29.68R
RICHLANDS      CLOUDY    50  49  96 SW6       29.69R
ROCKY MOUNT    LGT RAIN  51  50  96 NW8       29.67R
WASHINGTON     CLOUDY    51  49  93 SW7       29.66R
WHITEVILLE     NOT AVBL

$$

AMZ130-135-150-152-154-156-158-170-250-252-270-ANZ085-086-088-633-658-670-061200-
MARINE OBSERVATIONS

STATION/POSITION TIME  TEMP    WIND        PRES    WAVE   SWELL
                       AIR SEA DIR/SP/G            HT/PER HT/PER
                 (UTC) (F)     (DEG/KT/KT) (MB)    (FT/S) (FT/S)
CHESAPEAKE LIGHT 1100   50      20/  7/  8 1004.6
64 E VA BEACH    1050   49 51  290/ 10/ 12 1003.1    7/ 8   7/ 8
DUCK             1100   53 59  330/  6/  7 1003.6
2 E DUCK         1011      60                N/A     6/ 9
OREGON INLET     1100   53 60  360/  3/  3 1004.1
13E OREGON INLT  1100      55                N/A     6/ 8   5/ 8
HATTERAS CG      1100   57 65  160/  3/  4 1004.0
DIAMOND BUOY     1050   58 76  300/  4/  6 1004.5    4/ 8   3/ 8
CAPE LOOKOUT     1100   55     260/ 11/ 15 1004.4
BEAUFORT LAB     1100   52 65  290/  6/  9 1004.1
30 SE NEW RVR IN 1025      72                N/A     4/ 7
27 SE WRIGHTSVLE 1108   56 72  280/ 14/ 17 1005.3
5 SE WRIGHTSVLE  1108   52 69  290/ 16/ 21 1006.3
225 S CAPE HAT   1050   67 73  290/ 10/ 14 1006.8    9/ 9   8/ 9
41 SE CHARLESTON 1050   58 72  310/ 16/ 21 1007.5    5/ 5   2/ 9

$$




USA.gov is the U.S. government's official web portal to all federal, state and local government web resources and services.